shoulder
new_line
new_line
first
second
third
Al di la della Luna; Beyond the Moon; Astrophotography; Astrofotografia; Danilo Pivato
 
 
         
         
2020

Orbital Elements

Epoch 2020 May 31.0 TT = JDT 2459000.5  
T 2020 May 31.02622 TT                                                         fspoto 
q   0.2528909            (2000.0)                         P                     Q 
z  +0.0083348      Peri.  177.39524     +0.48060333    +0.62721989
                           Node   120.57138     -0.81689520     +0.57436599 
e   0.9978922         Incl.   45.38324     -0.31890857     -0.52602178
 
         
         
2020.05.07
2020.05.12
         
         
       
       
         
         
         

 

       
 
Since: 01/01/2004
 
           
Since: 01/11/2010